User: anonymous   Login
Location: Unspecified
(0.0000°N, 0.0000°E)
Time: 11:26:40
(UTC+01:00)
Language:

H-2A R/B - Orbit

View from above orbital plane
View from above orbital plane
View from above satellite
View from above satellite

Ground track
Ground track

The orbit data is extracted from the following two-line orbital elements,

1 28932U 06002B   17080.93035068 +.00000471 +00000-0 +50383-4 0  9997
2 28932 098.2071 000.3118 0088945 237.0362 185.4892 14.91279485604695
Epoch (UTC): 21 March 2017 22:19:42
Eccentricity: 0.0088945
inclination: 98.2071°
perigee height: 532 km
apogee height: 656 km
right ascension of ascending node: 0.3118°
argument of perigee: 237.0362°
revolutions per day: 14.91279485
mean anomaly at epoch: 185.4892°
orbit number at epoch: 60469

The dashed part of the orbit path shows where the satellite is in the earth's shadow,  

DLR